Regional Weather Roundup
Issued by NWS

Home | Current Version | Previous Version | Graphics & Text | Print | Product List | Glossary On
Versions: 1 2 3 4 5 6 7 8 9 10 11 12 13 14 15 16 17 18 19 20 21 22 23 24 25 26 27 28 29 30 31 32 33 34 35 36 37 38 39 40 41 42 43 44 45 46 47 48 49 50
000
ASUS43 KFSD 201810
RWRSD

WEATHER ROUNDUP FOR SOUTH DAKOTA
NATIONAL WEATHER SERVICE SIOUX FALLS SD
1200 PM CST MON NOV 20 2017

NOTE: "FAIR" INDICATES FEW OR NO CLOUDS BELOW 12,000 FEET WITH NO
SIGNIFICANT WEATHER AND/OR OBSTRUCTIONS TO VISIBILITY.


SDZ001>005-009-010-012>017-201900-
NORTHWEST AND NORTH CENTRAL SOUTH DAKOTA

CITY           SKY/WX    TMP DP  RH WIND       PRES   REMARKS
BUFFALO          N/A     55  16  21 W26G35    29.49S
FAITH            N/A     57  15  19 W17G31    29.54S
MOBRIDGE       CLOUDY    53  25  33 CALM      29.46F
$$

SDZ012>016-024>037-041>051-057-063-072>074-201900-
SOUTHWEST AND SOUTH CENTRAL SOUTH DAKOTA

CITY           SKY/WX    TMP DP  RH WIND       PRES   REMARKS
RAPID CTY ARPT CLOUDY    62  12  14 VRB3      29.60S
PIERRE         CLOUDY    55  23  28 NW15      29.53S
CUSTER         CLOUDY    49   9  19 W14       29.69S
ELLSWORTH AFB  CLOUDY    65  13  13 NW15      29.59S
PHILIP         SUNNY     61  23  23 W8        29.56S
PINE RIDGE     SUNNY     59  13  16 W20G31    29.66F
SPEARFISH      FAIR      57  12  17 W15       29.62R
WINNER         FAIR      55  24  30 SW7       29.55F
$$

SDZ004>011-016>023-039-040-201900-
NORTHEAST SOUTH DAKOTA

CITY           SKY/WX    TMP DP  RH WIND       PRES   REMARKS
ABERDEEN       CLOUDY    44  28  53 SW8       29.46F
WATERTOWN      CLOUDY    43  28  55 SW10      29.46F
BROOKINGS      CLOUDY    43  26  51 W8        29.51S
SISSETON         N/A     49  25  39 W21G29    29.37F
$$

SDZ017-020-022-023-036>040-048>070-201900-
SOUTHEAST SOUTH DAKOTA

CITY           SKY/WX    TMP DP  RH WIND       PRES   REMARKS
SIOUX FALLS    CLOUDY    44  27  51 SW8       29.53F
HURON          CLOUDY    44  29  55 S3        29.50F
CHAMBERLAIN    CLOUDY    48  25  40 W7        29.54F
MITCHELL       CLOUDY    49  25  39 W12       29.54F
YANKTON        CLOUDY    47  24  40 SW8       29.56F
$$

ABBREVIATIONS USED IN REMARKS
   TC - TEMPERATURE IN CELSIUS
  WCI - WIND CHILL INDEX
   HX - HEAT INDEX
  VSB - VISIBILITY





USA.gov is the U.S. government's official web portal to all federal, state and local government web resources and services.